Time,TemperatureF,DewpointF,PressureIn,WindDirection,WindDirectionDegrees,WindSpeedMPH,WindSpeedGustMPH,Humidity,HourlyPrecipIn,Conditions,Clouds,dailyrainin,SolarRadiationWatts/m^2,SoftwareType,DateUTC
2013-12-09 00:12:00,37.0,36.0,-100.00,NNE,16,4.0,8.0,97,0.00,,,0.19,0.000000,,2013-12-09 05:12:00,
2013-12-09 00:23:00,37.0,36.0,-100.00,NNE,16,4.0,8.0,97,0.00,,,0.19,0.000000,,2013-12-09 05:23:00,
2013-12-09 00:33:00,37.0,36.0,-100.00,NNE,16,4.0,8.0,97,0.00,,,0.19,0.000000,,2013-12-09 05:33:00,
2013-12-09 00:40:00,38.0,37.0,-100.00,NE,40,3.0,9.0,97,0.00,,,0.19,0.000000,,2013-12-09 05:40:00,
2013-12-09 01:12:00,38.0,37.0,-100.00,NE,40,3.0,9.0,97,0.00,,,0.19,0.000000,,2013-12-09 06:12:00,
2013-12-09 01:22:00,38.0,37.0,-100.00,NE,40,3.0,9.0,97,0.00,,,0.19,0.000000,,2013-12-09 06:22:00,
2013-12-09 01:32:00,38.0,37.0,-100.00,NE,40,3.0,9.0,97,0.00,,,0.19,0.000000,,2013-12-09 06:32:00,
2013-12-09 01:40:00,38.0,37.0,-100.00,ESE,122,2.0,6.0,97,0.00,,,0.19,0.000000,,2013-12-09 06:40:00,
2013-12-09 02:11:00,38.0,37.0,-100.00,ESE,122,2.0,6.0,97,0.00,,,0.19,0.000000,,2013-12-09 07:11:00,
2013-12-09 02:22:00,38.0,37.0,-100.00,ESE,122,2.0,6.0,97,0.00,,,0.19,0.000000,,2013-12-09 07:22:00,
2013-12-09 02:32:00,38.0,37.0,-100.00,ESE,122,2.0,6.0,97,0.00,,,0.19,0.000000,,2013-12-09 07:32:00,
2013-12-09 02:40:00,38.0,37.0,-100.00,NNW,329,3.0,5.0,97,0.00,,,0.19,0.000000,,2013-12-09 07:40:00,
2013-12-09 03:12:00,38.0,37.0,-100.00,NNW,329,3.0,5.0,97,0.00,,,0.19,0.000000,,2013-12-09 08:12:00,
2013-12-09 03:22:00,38.0,37.0,-100.00,NNW,329,3.0,5.0,97,0.00,,,0.19,0.000000,,2013-12-09 08:22:00,
2013-12-09 03:32:00,38.0,37.0,-100.00,NNW,329,3.0,5.0,97,0.00,,,0.19,0.000000,,2013-12-09 08:32:00,
2013-12-09 03:40:00,38.0,37.0,-100.00,NE,45,1.0,5.0,98,0.00,,,0.19,0.000000,,2013-12-09 08:40:00,
2013-12-09 04:12:00,38.0,37.0,-100.00,NE,45,1.0,5.0,98,0.00,,,0.19,0.000000,,2013-12-09 09:12:00,
2013-12-09 04:22:00,38.0,37.0,-100.00,NE,45,1.0,5.0,98,0.00,,,0.19,0.000000,,2013-12-09 09:22:00,
2013-12-09 04:33:00,38.0,37.0,-100.00,NE,45,1.0,5.0,98,0.00,,,0.19,0.000000,,2013-12-09 09:33:00,
2013-12-09 04:40:00,38.0,37.0,-100.00,NNE,12,2.0,4.0,98,0.00,,,0.19,0.000000,,2013-12-09 09:40:00,
2013-12-09 05:13:00,38.0,37.0,-100.00,NNE,12,2.0,4.0,98,0.00,,,0.19,0.000000,,2013-12-09 10:13:00,
2013-12-09 05:23:00,38.0,37.0,-100.00,NNE,12,2.0,4.0,98,0.00,,,0.19,0.000000,,2013-12-09 10:23:00,
2013-12-09 05:33:00,38.0,37.0,-100.00,NNE,12,2.0,4.0,98,0.00,,,0.19,0.000000,,2013-12-09 10:33:00,
2013-12-09 05:40:00,38.0,37.0,-100.00,NNW,341,1.0,6.0,98,0.00,,,0.18,0.000000,,2013-12-09 10:40:00,
2013-12-09 06:12:00,38.0,37.0,-100.00,NNW,341,1.0,6.0,98,0.00,,,0.18,0.000000,,2013-12-09 11:12:00,
2013-12-09 06:22:00,38.0,37.0,-100.00,NNW,341,1.0,6.0,98,0.00,,,0.18,0.000000,,2013-12-09 11:22:00,
2013-12-09 06:33:00,38.0,37.0,-100.00,NNW,341,1.0,6.0,98,0.00,,,0.18,0.000000,,2013-12-09 11:33:00,
2013-12-09 06:40:00,39.0,38.0,-100.00,NE,42,1.0,3.0,98,0.00,,,0.07,0.000000,,2013-12-09 11:40:00,
2013-12-09 07:12:00,39.0,38.0,-100.00,NE,42,1.0,3.0,98,0.00,,,0.07,0.000000,,2013-12-09 12:12:00,
2013-12-09 07:22:00,39.0,38.0,-100.00,NE,42,1.0,3.0,98,0.00,,,0.07,0.000000,,2013-12-09 12:22:00,
2013-12-09 07:32:00,39.0,38.0,-100.00,NE,42,1.0,3.0,98,0.00,,,0.07,0.000000,,2013-12-09 12:32:00,
2013-12-09 07:40:00,39.0,38.0,-100.00,South,176,0.0,3.0,98,0.01,,,0.08,3.000000,,2013-12-09 12:40:00,
2013-12-09 08:12:00,39.0,38.0,-100.00,South,176,0.0,3.0,98,0.01,,,0.08,3.000000,,2013-12-09 13:12:00,
2013-12-09 08:22:00,39.0,38.0,-100.00,South,176,0.0,3.0,98,0.01,,,0.08,3.000000,,2013-12-09 13:22:00,
2013-12-09 08:32:00,39.0,38.0,-100.00,South,176,0.0,3.0,98,0.01,,,0.08,3.000000,,2013-12-09 13:32:00,
2013-12-09 08:40:00,40.0,39.0,-100.00,SSE,151,5.0,7.0,98,0.00,,,0.08,24.000000,,2013-12-09 13:40:00,
2013-12-09 09:12:00,40.0,39.0,-100.00,SSE,151,5.0,7.0,98,0.00,,,0.08,24.000000,,2013-12-09 14:12:00,
2013-12-09 09:22:00,40.0,39.0,-100.00,SSE,151,5.0,7.0,98,0.00,,,0.08,24.000000,,2013-12-09 14:22:00,
2013-12-09 09:32:00,40.0,39.0,-100.00,SSE,151,5.0,7.0,98,0.00,,,0.08,24.000000,,2013-12-09 14:32:00,
2013-12-09 09:40:00,43.0,42.0,-100.00,SSW,206,2.0,8.0,98,0.00,,,0.07,83.000000,,2013-12-09 14:40:00,
2013-12-09 10:12:00,43.0,42.0,-100.00,SSW,206,2.0,8.0,98,0.00,,,0.07,83.000000,,2013-12-09 15:12:00,
2013-12-09 10:22:00,43.0,42.0,-100.00,SSW,206,2.0,8.0,98,0.00,,,0.07,83.000000,,2013-12-09 15:22:00,
2013-12-09 10:33:00,43.0,42.0,-100.00,SSW,206,2.0,8.0,98,0.00,,,0.07,83.000000,,2013-12-09 15:33:00,
2013-12-09 10:40:00,45.0,44.0,-100.00,South,188,3.0,5.0,97,0.00,,,0.04,94.000000,,2013-12-09 15:40:00,
2013-12-09 11:13:00,45.0,44.0,-100.00,South,188,3.0,5.0,97,0.00,,,0.04,94.000000,,2013-12-09 16:13:00,
2013-12-09 11:23:00,45.0,44.0,-100.00,South,188,3.0,5.0,97,0.00,,,0.04,94.000000,,2013-12-09 16:23:00,
2013-12-09 11:33:00,45.0,44.0,-100.00,South,188,3.0,5.0,97,0.00,,,0.04,94.000000,,2013-12-09 16:33:00,
2013-12-09 11:40:00,48.0,47.0,-100.00,WSW,243,2.0,7.0,97,0.00,,,0.03,155.000000,,2013-12-09 16:40:00,
2013-12-09 12:12:00,48.0,47.0,-100.00,WSW,243,2.0,7.0,97,0.00,,,0.03,155.000000,,2013-12-09 17:12:00,
2013-12-09 12:23:00,48.0,47.0,-100.00,WSW,243,2.0,7.0,97,0.00,,,0.03,155.000000,,2013-12-09 17:23:00,
2013-12-09 12:33:00,48.0,47.0,-100.00,WSW,243,2.0,7.0,97,0.00,,,0.03,155.000000,,2013-12-09 17:33:00,
2013-12-09 12:40:00,49.0,48.0,-100.00,West,270,4.0,7.0,97,0.00,,,0.03,88.000000,,2013-12-09 17:40:00,
2013-12-09 13:12:00,49.0,48.0,-100.00,West,270,4.0,7.0,97,0.00,,,0.03,88.000000,,2013-12-09 18:12:00,
2013-12-09 13:22:00,49.0,48.0,-100.00,West,270,4.0,7.0,97,0.00,,,0.03,88.000000,,2013-12-09 18:22:00,
2013-12-09 13:32:00,49.0,48.0,-100.00,West,270,4.0,7.0,97,0.00,,,0.03,88.000000,,2013-12-09 18:32:00,
2013-12-09 13:40:00,51.0,50.0,-100.00,SW,235,4.0,6.0,97,0.00,,,0.03,135.000000,,2013-12-09 18:40:00,
2013-12-09 14:12:00,51.0,50.0,-100.00,SW,235,4.0,6.0,97,0.00,,,0.03,135.000000,,2013-12-09 19:12:00,
2013-12-09 14:22:00,51.0,50.0,-100.00,SW,235,4.0,6.0,97,0.00,,,0.03,135.000000,,2013-12-09 19:22:00,
2013-12-09 14:32:00,51.0,50.0,-100.00,SW,235,4.0,6.0,97,0.00,,,0.03,135.000000,,2013-12-09 19:32:00,
2013-12-09 14:40:00,53.0,52.0,-100.00,West,273,6.0,9.0,97,0.00,,,0.01,112.000000,,2013-12-09 19:40:00,
2013-12-09 15:11:00,53.0,52.0,-100.00,West,273,6.0,9.0,97,0.00,,,0.01,112.000000,,2013-12-09 20:11:00,
2013-12-09 15:22:00,53.0,52.0,-100.00,West,273,6.0,9.0,97,0.00,,,0.01,112.000000,,2013-12-09 20:22:00,
2013-12-09 15:32:00,53.0,52.0,-100.00,West,273,6.0,9.0,97,0.00,,,0.01,112.000000,,2013-12-09 20:32:00,
2013-12-09 15:40:00,54.0,53.0,-100.00,West,266,2.0,8.0,97,0.00,,,0.01,62.000000,,2013-12-09 20:40:00,
2013-12-09 16:12:00,54.0,53.0,-100.00,West,266,2.0,8.0,97,0.00,,,0.01,62.000000,,2013-12-09 21:12:00,
2013-12-09 16:22:00,54.0,53.0,-100.00,West,266,2.0,8.0,97,0.00,,,0.01,62.000000,,2013-12-09 21:22:00,
2013-12-09 16:33:00,54.0,53.0,-100.00,West,266,2.0,8.0,97,0.00,,,0.01,62.000000,,2013-12-09 21:33:00,
2013-12-09 16:40:00,54.0,53.0,-100.00,SW,219,4.0,8.0,98,0.00,,,0.01,30.000000,,2013-12-09 21:40:00,
2013-12-09 17:23:00,54.0,53.0,-100.00,SW,219,4.0,8.0,98,0.00,,,0.01,30.000000,,2013-12-09 22:23:00,
2013-12-09 17:33:00,54.0,53.0,-100.00,SW,219,4.0,8.0,98,0.00,,,0.01,30.000000,,2013-12-09 22:33:00,
2013-12-09 17:40:00,54.0,54.0,-100.00,NW,307,4.0,7.0,99,0.00,,,0.01,4.000000,,2013-12-09 22:40:00,
2013-12-09 18:12:00,54.0,54.0,-100.00,NW,307,4.0,7.0,99,0.00,,,0.01,4.000000,,2013-12-09 23:12:00,
2013-12-09 18:22:00,54.0,54.0,-100.00,NW,307,4.0,7.0,99,0.00,,,0.01,4.000000,,2013-12-09 23:22:00,
2013-12-09 18:33:00,54.0,54.0,-100.00,NW,307,4.0,7.0,99,0.00,,,0.01,4.000000,,2013-12-09 23:33:00,
2013-12-09 18:40:00,53.0,53.0,-100.00,WNW,287,2.0,8.0,99,0.00,,,0.01,0.000000,,2013-12-09 23:40:00,
2013-12-09 19:12:00,53.0,53.0,-100.00,WNW,287,2.0,8.0,99,0.00,,,0.01,0.000000,,2013-12-10 00:12:00,
2013-12-09 19:22:00,53.0,53.0,-100.00,WNW,287,2.0,8.0,99,0.00,,,0.01,0.000000,,2013-12-10 00:22:00,
2013-12-09 19:32:00,53.0,53.0,-100.00,WNW,287,2.0,8.0,99,0.00,,,0.01,0.000000,,2013-12-10 00:32:00,
2013-12-09 19:40:00,53.0,53.0,-100.00,West,259,2.0,5.0,99,0.00,,,0.01,0.000000,,2013-12-10 00:40:00,
2013-12-09 20:11:00,53.0,53.0,-100.00,West,259,2.0,5.0,99,0.00,,,0.01,0.000000,,2013-12-10 01:11:00,
2013-12-09 20:22:00,53.0,53.0,-100.00,West,259,2.0,5.0,99,0.00,,,0.01,0.000000,,2013-12-10 01:22:00,
2013-12-09 20:32:00,53.0,53.0,-100.00,West,259,2.0,5.0,99,0.00,,,0.01,0.000000,,2013-12-10 01:32:00,
2013-12-09 20:40:00,53.0,53.0,-100.00,SSW,205,1.0,4.0,99,0.00,,,0.01,0.000000,,2013-12-10 01:40:00,
2013-12-09 21:12:00,53.0,53.0,-100.00,SSW,205,1.0,4.0,99,0.00,,,0.01,0.000000,,2013-12-10 02:12:00,
2013-12-09 21:22:00,53.0,53.0,-100.00,SSW,205,1.0,4.0,99,0.00,,,0.01,0.000000,,2013-12-10 02:22:00,
2013-12-09 21:32:00,53.0,53.0,-100.00,SSW,205,1.0,4.0,99,0.00,,,0.01,0.000000,,2013-12-10 02:32:00,
2013-12-09 21:40:00,53.0,53.0,-100.00,North,-999,0.0,2.0,99,0.00,,,0.01,0.000000,,2013-12-10 02:40:00,
2013-12-09 22:12:00,53.0,53.0,-100.00,North,-999,0.0,2.0,99,0.00,,,0.01,0.000000,,2013-12-10 03:12:00,
2013-12-09 22:22:00,53.0,53.0,-100.00,North,-999,0.0,2.0,99,0.00,,,0.01,0.000000,,2013-12-10 03:22:00,
2013-12-09 22:33:00,53.0,53.0,-100.00,North,-999,0.0,2.0,99,0.00,,,0.01,0.000000,,2013-12-10 03:33:00,
2013-12-09 22:40:00,53.0,53.0,-100.00,North,-999,0.0,2.0,99,0.00,,,0.01,0.000000,,2013-12-10 03:40:00,
2013-12-09 23:13:00,53.0,53.0,-100.00,North,-999,0.0,2.0,99,0.00,,,0.01,0.000000,,2013-12-10 04:13:00,
2013-12-09 23:23:00,53.0,53.0,-100.00,North,-999,0.0,2.0,99,0.00,,,0.01,0.000000,,2013-12-10 04:23:00,
2013-12-09 23:33:00,53.0,53.0,-100.00,North,-999,0.0,2.0,99,0.00,,,0.01,0.000000,,2013-12-10 04:33:00,
2013-12-09 23:40:00,53.0,53.0,-100.00,North,-999,0.0,3.0,99,0.00,,,0.01,0.000000,,2013-12-10 04:40:00,